Showing default

POSAT 1, 22829

Orbit data source: Space-Track

POSAT 1, 22829 is a payload satellite owned by INETI (PT) in SSO that was launched on Sun, 26 Sep 1993 UTC via an ARIANE 40 launch vehicle from the French Guiana (FRGUI). Payload-class satellites include a variety of spacecraft equipped with specific instruments for various scientific and technological missions. These include communications satellites like Starlink; space stations such as the ISS; scientific satellites like the Hubble; Earth observation satellites from companies like Planet Labs, Umbra, and HawkEye 360; GPS; miniature CubeSats for education and research; and military/defense satellites.

Loading next visibility...
Identifier
22829, 1993-061G
Orbit
SSO
Country
Flag of PTPT / POR
Related business
Manufacturer
SSTL
Mission
Non-operational Amateur Communications
Bus & Motor
UOSAT, Unknown motor
Mass
50 kg wet, 50 kg dry
Launch date (UTC)
1993-09-26 (33 years ago)
Launch vehicle
ARIANE 40
Launch site
French Guiana (FRGUI)
Object type
Payload
Rocket body
Debris
Shape & HBR
Box + 1 Ant, 3.3 m
Radar Cross Section
0.597 m², Medium (>0.1 m² and < 1m²)

Expand to show TLE details & history
Last TLE update: 12 hours ago

TLE from 12 hours ago
0 POSAT 1
1 22829U 93061G   26264.43821006  .00000033  00000-0  29021-4 0  9990
2 22829  98.6565 331.3459 0010817 105.3078 254.9301 14.31938574721822
Epoch: 2026-09-21T10:31Z
TLE epoch observation values (Epoch: 2026-09-21T10:31:01.349Z)
Latitude
-0.00006°
Longitude
173.27225°
Altitude
790.214 km
Speed
7.458 km/s
True Right ascension
22h 05m 23s
True Declination
0° 00' 00"
Sunlit
Object was in full shadow at epoch
Visualization orbit readout
Latitude
Unknown
Longitude
Unknown
Altitude
Unknown
Speed
Unknown
Apparent Right ascension
Unknown
Apparent Declination
Unknown
Sunlit
N/A
Visualization observer readout
Local Sidereal Time
15:38:11
Azimuth
Unknown
Elevation
Unknown
Doppler factor
Unknown
Orbital elements
Apogee altitude
790.144 km
Perigee altitude
774.653 km
Semi-major axis
7,160.535 km
Eccentricity
0.00108
Inclination
98.6565°
RAAN
331.3459°
Arg. of periapsis
105.3078°
True anomaly
254.81045°
Mean anomaly
254.9301°
Eccentric anomaly
254.87027°
Mean motion
3.58199 °/min
Orbital period
100.5 mins
BSTAR
0.000029021
Loading maneuver chart data...
Computing Atmospheric mass density...
Loading historical data...
Loading historical data...
Loading historical data...
Loading historical data...
Loading historical data...
Loading historical data...
Loading historical data...

Documentation

Showing up to 5 results
|